| time (UTC) | temp C | wind direction | speed KPH | gust KPH | rain 1hr cm | rain 24hr cm | rain mn cm | humidity % | barometer mb |
| 20260905200306 | 16 | 77 | 1.6 | 4.8 | 0.00 | 0.00 | 0.00 | 53 | 1013.7 |
| 20260905190306 | 14 | 38 | 0.0 | 4.8 | 0.00 | 0.00 | 0.00 | 63 | 1014.1 |
| 20260905180805 | 11 | 318 | 1.6 | 3.2 | 0.00 | 0.00 | 0.00 | 74 | 1014.6 |
| 20260905180305 | 11 | 10 | 0.0 | 12.9 | 0.00 | 0.00 | 0.00 | 74 | 1014.7 |
| 20260905170804 | 7 | 264 | 3.2 | 9.7 | 0.00 | 0.00 | 0.00 | 91 | 1015.4 |
| 20260905170305 | 6 | 274 | 1.6 | 9.7 | 0.00 | 0.00 | 0.00 | 93 | 1015.4 |
| 20260905160805 | 4 | 270 | 8.0 | 11.3 | 0.00 | 0.00 | 0.00 | 99 | 1016.0 |
| 20260905160306 | 3 | 130 | 8.0 | 11.3 | 0.00 | 0.00 | 0.00 | 99 | 1016.0 |
| 20260905150805 | 1 | 239 | 4.8 | 8.0 | 0.00 | 0.00 | 0.00 | 99 | 1016.3 |
| 20260905150305 | 1 | 128 | 3.2 | 9.7 | 0.00 | 0.00 | 0.00 | 99 | 1016.3 |
| 20260905140805 | 1 | 283 | 8.0 | 8.0 | 0.00 | 0.00 | 0.00 | 98 | 1016.5 |
| 20260905130806 | 2 | 258 | 3.2 | 8.0 | 0.00 | 0.00 | 0.00 | 98 | 1016.3 |
| 20260905130305 | 2 | 280 | 4.8 | 8.0 | 0.00 | 0.00 | 0.00 | 98 | 1016.4 |
| 20260905120805 | 2 | 278 | 4.8 | 4.8 | 0.00 | 0.00 | 0.00 | 98 | 1016.7 |
| 20260905120305 | 2 | 275 | 4.8 | 8.0 | 0.00 | 0.00 | 0.00 | 98 | 1016.8 |
| 20260905110805 | 3 | 269 | 4.8 | 8.0 | 0.00 | 0.00 | 0.00 | 98 | 1017.2 |
| 20260905110305 | 3 | 272 | 6.4 | 9.7 | 0.00 | 0.00 | 0.00 | 98 | 1017.3 |
| 20260905100805 | 5 | 277 | 6.4 | 8.0 | 0.00 | 0.00 | 0.00 | 97 | 1017.1 |
| 20260905100305 | 5 | 278 | 8.0 | 11.3 | 0.00 | 0.00 | 0.00 | 98 | 1017.1 |
| 20260905090805 | 5 | 240 | 8.0 | 11.3 | 0.00 | 0.00 | 0.00 | 95 | 1017.1 |
| 20260905090304 | 5 | 219 | 9.7 | 12.9 | 0.00 | 0.00 | 0.00 | 95 | 1017.0 |
| 20260905080805 | 6 | 279 | 6.4 | 11.3 | 0.00 | 0.00 | 0.00 | 92 | 1017.1 |
| 20260905080305 | 6 | 273 | 9.7 | 11.3 | 0.00 | 0.00 | 0.00 | 92 | 1017.1 |
| 20260905070812 | 7 | 274 | 4.8 | 8.0 | 0.00 | 0.00 | 0.00 | 89 | 1016.9 |
| 20260905070304 | 7 | 265 | 4.8 | 8.0 | 0.00 | 0.00 | 0.00 | 88 | 1016.8 |
| 20260905060804 | 9 | 351 | 3.2 | 8.0 | 0.00 | 0.00 | 0.00 | 84 | 1016.7 |
| 20260905060305 | 9 | 11 | 3.2 | 8.0 | 0.00 | 0.00 | 0.00 | 83 | 1016.7 |
| 20260905050805 | 11 | 273 | 3.2 | 4.8 | 0.00 | 0.00 | 0.00 | 76 | 1016.6 |
| 20260905050304 | 11 | 274 | 1.6 | 4.8 | 0.00 | 0.00 | 0.00 | 76 | 1016.6 |
| 20260905040804 | 15 | 43 | 0.0 | 1.6 | 0.00 | 0.00 | 0.00 | 61 | 1016.3 |
| 20260905040306 | 15 | 35 | 0.0 | 3.2 | 0.00 | 0.00 | 0.00 | 63 | 1016.3 |
| 20260905030805 | 18 | 57 | 1.6 | 3.2 | 0.00 | 0.00 | 0.00 | 51 | 1016.0 |
| 20260905030304 | 18 | 46 | 1.6 | 3.2 | 0.00 | 0.00 | 0.00 | 50 | 1016.0 |
| 20260905020805 | 21 | 60 | 1.6 | 3.2 | 0.00 | 0.00 | 0.00 | 44 | 1015.9 |
| 20260905000805 | 22 | 38 | 3.2 | 4.8 | 0.00 | 0.00 | 0.00 | 40 | 1016.5 |
| 20260905000304 | 22 | 6 | 3.2 | 8.0 | 0.00 | 0.00 | 0.00 | 40 | 1016.6 |
| 20260904230805 | 20 | 51 | 1.6 | 4.8 | 0.00 | 0.00 | 0.00 | 44 | 1017.2 |
| 20260904230304 | 20 | 53 | 3.2 | 4.8 | 0.00 | 0.00 | 0.00 | 44 | 1017.3 |
| 20260904220805 | 18 | 61 | 1.6 | 3.2 | 0.00 | 0.00 | 0.00 | 43 | 1017.7 |
| 20260904220306 | 18 | 56 | 1.6 | 9.7 | 0.00 | 0.00 | 0.00 | 44 | 1017.8 |